"startDT [UTC]","vpos","CH4 [ppm]","stdev(CH4) [ppm]","CO2 [ppm]","stdev(CO2) [ppm]","H2O [ppm]","stdev(H2O)","p_LGR [torr]","T_LGR [C]","mt1_LGR [us]","mt2_LGR [us]","T_ECpre [C]","T_EC1 [C]","T_EC2 [C]","p_inlet [hPa]","p_in [hPa]","p_out [hPa]","T_inlet [C]","RH_inlet [%]","dwpt_inlet [C]","T_vent [C]","RH_vent [%]","dwpt_vent [C]","flow_vent [l min-1]","flow_inlet [l min-1]","dwpt_sample [C]","T_room [C]"
2012-11-01 00:00:00,0.0,1.9039,0.0013,399.26,0.28,223.6,33.7,138.04,31.70,24.65,36.43,0.04,-272.74,-272.75,-42,564,-933,24.8,4.7,-18.2,25.2,4.7,-17.9,5.73,2.31,-23.8,30.3
2012-11-01 00:01:00,0.0,1.9043,0.0018,399.26,0.22,218.1,32.8,138.04,31.70,24.66,36.43,0.04,-272.74,-272.75,-42,564,-932,24.8,4.7,-18.2,25.2,4.7,-17.9,5.73,2.40,-23.7,30.3
2012-11-01 00:02:00,0.0,1.9065,0.0015,399.48,0.21,230.0,31.8,138.04,31.69,24.65,36.41,0.04,-272.75,-272.75,-42,564,-933,24.9,4.6,-18.2,25.2,4.7,-18.0,5.73,2.38,-23.7,30.4
2012-11-01 00:03:00,0.0,1.9085,0.0011,399.33,0.16,222.0,35.3,138.04,31.70,24.65,36.43,0.04,-272.74,-272.75,-42,564,-932,24.9,4.6,-18.2,25.2,4.7,-18.0,5.73,2.29,-23.6,30.4
2012-11-01 00:04:00,0.0,1.9076,0.0011,399.39,0.21,222.3,32.0,138.04,31.70,24.66,36.42,0.04,-272.75,-272.75,-42,564,-932,24.9,4.6,-18.3,25.2,4.6,-18.0,5.73,2.39,-23.6,30.4
2012-11-01 00:05:00,0.0,1.9065,0.0009,399.44,0.21,243.1,31.3,138.04,31.70,24.66,36.42,0.04,-272.75,-272.75,-42,564,-932,25.0,4.6,-18.2,25.3,4.6,-18.0,5.73,2.39,-23.5,30.4
2012-11-01 00:06:00,0.0,1.9063,0.0010,399.32,0.22,245.7,28.7,138.04,31.71,24.65,36.42,0.04,-272.75,-272.75,-42,564,-932,25.0,4.6,-18.3,25.3,4.6,-18.0,5.73,2.29,-23.5,30.5
2012-11-01 00:07:00,0.0,1.9049,0.0011,399.34,0.19,240.1,33.0,138.04,31.71,24.66,36.42,0.04,-272.74,-272.74,-42,564,-932,25.0,4.6,-18.2,25.3,4.6,-18.0,5.73,2.38,-23.4,30.5
2012-11-01 00:08:00,0.0,1.9054,0.0013,399.34,0.19,247.4,32.2,138.04,31.71,24.66,36.42,0.04,-272.75,-272.75,-42,564,-933,25.1,4.6,-18.2,25.3,4.6,-18.0,5.73,2.39,-23.4,30.5
2012-11-01 00:09:00,0.0,1.9077,0.0013,399.42,0.25,253.1,42.4,138.04,31.71,24.65,36.42,0.04,-272.75,-272.75,-42,564,-932,25.1,4.6,-18.3,25.3,4.6,-18.0,5.73,2.29,-23.3,30.5
2012-11-01 00:10:00,0.0,1.9062,0.0015,399.31,0.20,250.5,33.1,138.03,31.72,24.65,36.42,0.04,-272.75,-272.75,-42,565,-933,25.1,4.6,-18.3,25.4,4.6,-18.0,5.73,2.37,-23.3,30.6
2012-11-01 00:11:00,0.0,1.9034,0.0014,399.16,0.21,258.2,35.0,138.04,31.72,24.66,36.43,0.04,-272.74,-272.74,-42,565,-932,25.2,4.5,-18.3,25.4,4.6,-18.0,5.73,2.40,-23.3,30.6
2012-11-01 00:12:00,0.0,1.9034,0.0013,399.21,0.23,254.5,31.3,138.04,31.72,24.66,36.42,0.04,-272.74,-272.74,-42,565,-932,25.2,4.5,-18.3,25.4,4.6,-18.0,5.73,2.29,-23.3,30.6
2012-11-01 00:13:00,0.0,1.9019,0.0013,399.15,0.19,255.1,29.4,138.04,31.72,24.65,36.42,0.04,-272.74,-272.75,-42,565,-932,25.1,4.5,-18.3,25.4,4.6,-18.0,5.73,2.35,-23.3,30.5
2012-11-01 00:14:00,0.0,1.9014,0.0013,399.11,0.22,248.9,28.2,138.04,31.72,24.65,36.43,0.04,-272.74,-272.75,-42,565,-932,25.1,4.6,-18.3,25.3,4.6,-18.0,5.73,2.41,-23.3,30.5
2012-11-01 00:15:00,0.0,1.9000,0.0012,398.97,0.23,256.8,31.7,138.04,31.72,24.66,36.42,0.04,-272.75,-272.75,-42,565,-933,25.1,4.6,-18.3,25.3,4.6,-18.0,5.73,2.35,-23.4,30.4
2012-11-01 00:16:00,0.0,1.9026,0.0013,399.24,0.18,238.0,31.8,138.04,31.72,24.66,36.42,0.04,-272.75,-272.75,-42,565,-933,25.1,4.6,-18.3,25.3,4.6,-18.0,5.73,2.30,-23.4,30.4
2012-11-01 00:17:00,0.0,1.9063,0.0020,399.20,0.19,243.3,36.7,138.04,31.72,24.66,36.43,0.04,-272.74,-272.74,-42,565,-933,25.0,4.6,-18.3,25.3,4.6,-18.1,5.73,2.36,-23.5,30.4
2012-11-01 00:18:00,0.0,1.9167,0.0051,399.52,0.18,231.9,32.6,138.04,31.71,24.66,36.42,0.04,-272.74,-272.74,-42,565,-932,25.0,4.6,-18.4,25.3,4.6,-18.1,5.73,2.41,-23.5,30.4
2012-11-01 00:19:00,0.0,1.9291,0.0041,399.99,0.23,235.9,29.5,138.04,31.71,24.65,36.42,0.04,-272.75,-272.75,-42,565,-932,25.0,4.6,-18.4,25.2,4.6,-18.2,5.73,2.35,-23.5,30.4
2012-11-01 00:20:00,0.0,1.9176,0.0029,399.45,0.23,237.4,37.8,138.04,31.71,24.65,36.43,0.04,-272.75,-272.75,-42,565,-932,24.9,4.5,-18.5,25.2,4.6,-18.2,5.73,2.30,-23.5,30.4
2012-11-01 00:21:00,0.0,1.9100,0.0015,399.16,0.22,235.1,32.4,138.04,31.71,24.66,36.42,0.04,-272.74,-272.75,-42,564,-932,24.9,4.5,-18.6,25.2,4.5,-18.3,5.73,2.39,-23.5,30.5
2012-11-01 00:22:00,0.0,1.9113,0.0029,399.20,0.26,238.8,32.4,138.04,31.71,24.65,36.42,0.04,-272.75,-272.75,-42,564,-932,24.9,4.5,-18.7,25.2,4.5,-18.4,5.73,2.40,-23.4,30.5
2012-11-01 00:23:00,0.0,1.9134,0.0019,399.39,0.23,239.1,32.7,138.04,31.71,24.66,36.42,0.04,-272.75,-272.75,-42,564,-932,24.9,4.4,-18.7,25.3,4.4,-18.5,5.73,2.29,-23.4,30.5
2012-11-01 00:24:00,0.0,1.9107,0.0010,399.20,0.20,245.5,30.4,138.04,31.71,24.65,36.42,0.04,-272.74,-272.74,-42,564,-932,25.0,4.4,-18.8,25.3,4.4,-18.5,5.73,2.37,-23.4,30.5
2012-11-01 00:25:00,0.0,1.9121,0.0022,399.34,0.26,249.3,30.1,138.04,31.71,24.66,36.42,0.04,-272.74,-272.75,-42,564,-933,25.0,4.4,-18.8,25.3,4.4,-18.6,5.73,2.41,-23.3,30.5
2012-11-01 00:26:00,0.0,1.9161,0.0008,399.55,0.22,251.1,35.3,138.04,31.71,24.66,36.42,0.04,-272.75,-272.75,-42,564,-932,25.0,4.4,-18.8,25.3,4.4,-18.6,5.73,2.30,-23.3,30.5
2012-11-01 00:27:00,0.0,1.9183,0.0018,399.76,0.26,248.7,31.5,138.04,31.71,24.65,36.42,0.04,-272.75,-272.75,-42,565,-933,25.0,4.4,-18.8,25.3,4.4,-18.6,5.73,2.35,-23.3,30.5
2012-11-01 00:28:00,0.0,1.9194,0.0014,399.74,0.25,254.6,27.5,138.04,31.71,24.65,36.42,0.04,-272.74,-272.74,-42,564,-933,25.0,4.4,-18.9,25.3,4.4,-18.7,5.73,2.41,-23.3,30.5
2012-11-01 00:29:00,0.0,1.9185,0.0011,399.68,0.24,249.9,29.9,138.04,31.71,24.65,36.42,0.04,-272.75,-272.75,-42,565,-932,25.0,4.4,-18.9,25.3,4.4,-18.6,5.73,2.34,-23.3,30.4
2012-11-01 00:30:00,0.0,1.9191,0.0015,399.85,0.21,244.0,36.7,138.04,31.71,24.66,36.42,0.04,-272.75,-272.75,-42,564,-932,25.0,4.4,-18.9,25.3,4.4,-18.7,5.73,2.31,-23.4,30.3
2012-11-01 00:31:00,0.0,1.9183,0.0011,399.77,0.23,249.7,32.0,138.04,31.71,24.65,36.42,0.04,-272.75,-272.75,-42,564,-932,24.9,4.4,-18.9,25.2,4.4,-18.7,5.73,2.37,-23.4,30.3
2012-11-01 00:32:00,0.0,1.9191,0.0015,399.94,0.24,241.2,35.2,138.04,31.71,24.66,36.42,0.04,-272.75,-272.75,-42,564,-932,24.9,4.4,-18.9,25.2,4.4,-18.7,5.73,2.42,-23.4,30.3
2012-11-01 00:33:00,0.0,1.9249,0.0019,400.08,0.22,237.4,29.9,138.04,31.71,24.65,36.42,0.04,-272.75,-272.75,-42,564,-933,24.9,4.4,-19.0,25.2,4.4,-18.7,5.73,2.34,-23.4,30.4
2012-11-01 00:34:00,0.0,1.9281,0.0011,400.14,0.19,244.6,28.2,138.04,31.71,24.66,36.43,0.04,-272.75,-272.74,-42,564,-933,24.9,4.3,-19.0,25.2,4.4,-18.7,5.73,2.30,-23.4,30.4
2012-11-01 00:35:00,0.0,1.9265,0.0011,400.08,0.21,246.1,29.8,138.04,31.71,24.65,36.42,0.04,-272.74,-272.74,-42,564,-933,24.9,4.3,-19.1,25.2,4.3,-18.8,5.73,2.40,-23.4,30.4
2012-11-01 00:36:00,0.0,1.9280,0.0010,400.23,0.23,243.4,33.4,138.04,31.71,24.65,36.41,0.04,-272.75,-272.75,-42,564,-932,24.9,4.3,-19.1,25.2,4.3,-18.8,5.73,2.39,-23.4,30.4
2012-11-01 00:37:00,0.0,1.9276,0.0015,400.12,0.26,242.5,35.4,138.04,31.71,24.65,36.42,0.04,-272.75,-272.75,-42,564,-932,24.8,4.3,-19.2,25.2,4.3,-18.9,5.73,2.30,-23.4,30.3
2012-11-01 00:38:00,0.0,1.9283,0.0013,400.09,0.29,240.0,31.9,138.04,31.71,24.65,36.42,0.04,-272.74,-272.75,-42,564,-932,24.8,4.3,-19.2,25.2,4.3,-18.9,5.73,2.35,-23.4,30.3
2012-11-01 00:39:00,0.0,1.9288,0.0009,400.16,0.20,237.6,29.0,138.04,31.71,24.66,36.42,0.04,-272.75,-272.75,-42,564,-933,24.8,4.3,-19.2,25.1,4.3,-19.0,5.73,2.41,-23.5,30.3
2012-11-01 00:40:00,0.0,1.9297,0.0009,400.23,0.21,236.1,32.2,138.04,31.70,24.66,36.42,0.04,-272.75,-272.75,-42,564,-933,24.7,4.3,-19.3,25.1,4.3,-19.0,5.73,2.37,-23.5,30.3
2012-11-01 00:41:00,0.0,1.9292,0.0014,400.18,0.20,236.5,36.5,138.04,31.70,24.66,36.42,0.04,-272.74,-272.75,-42,564,-933,24.7,4.3,-19.3,25.1,4.3,-19.0,5.73,2.30,-23.5,30.3
2012-11-01 00:42:00,0.0,1.9276,0.0015,400.18,0.20,242.9,27.3,138.04,31.70,24.66,36.42,0.04,-272.75,-272.75,-42,564,-932,24.7,4.3,-19.3,25.1,4.3,-19.0,5.73,2.37,-23.5,30.3
2012-11-01 00:43:00,0.0,1.9297,0.0016,400.14,0.24,238.7,31.5,138.04,31.70,24.65,36.42,0.04,-272.75,-272.75,-42,563,-933,24.7,4.3,-19.4,25.1,4.3,-19.1,5.73,2.42,-23.5,30.3
2012-11-01 00:44:00,0.0,1.9262,0.0014,400.00,0.19,239.6,32.9,138.04,31.70,24.65,36.42,0.04,-272.75,-272.75,-42,563,-933,24.7,4.2,-19.4,25.1,4.2,-19.1,5.73,2.31,-23.5,30.3
2012-11-01 00:45:00,0.0,1.9250,0.0012,399.97,0.19,245.1,31.8,138.04,31.70,24.65,36.42,0.04,-272.74,-272.75,-42,564,-932,24.7,4.2,-19.5,25.1,4.2,-19.2,5.73,2.33,-23.4,30.4
2012-11-01 00:46:00,0.0,1.9216,0.0012,399.97,0.22,242.0,31.9,138.04,31.70,24.65,36.42,0.04,-272.75,-272.75,-42,564,-933,24.8,4.2,-19.5,25.1,4.2,-19.2,5.73,2.42,-23.3,30.4
2012-11-01 00:47:00,0.0,1.9213,0.0016,400.03,0.19,247.9,32.7,138.04,31.70,24.65,36.41,0.04,-272.75,-272.75,-42,564,-932,24.8,4.2,-19.5,25.2,4.2,-19.2,5.73,2.33,-23.3,30.4
2012-11-01 00:48:00,0.0,1.9222,0.0016,400.09,0.22,257.9,37.1,138.04,31.70,24.66,36.41,0.04,-272.75,-272.75,-42,564,-932,24.9,4.1,-19.6,25.2,4.2,-19.3,5.73,2.31,-23.2,30.4
2012-11-01 00:49:00,0.0,1.9204,0.0012,399.94,0.18,259.1,32.8,138.04,31.71,24.65,36.42,0.04,-272.75,-272.75,-42,564,-932,24.9,4.1,-19.6,25.2,4.2,-19.3,5.73,2.42,-23.2,30.5
2012-11-01 00:50:00,0.0,1.9222,0.0016,400.00,0.20,270.8,35.2,138.04,31.71,24.65,36.42,0.04,-272.75,-272.75,-42,564,-932,25.0,4.1,-19.7,25.2,4.1,-19.3,5.73,2.34,-23.2,30.5
2012-11-01 00:51:00,0.0,1.9269,0.0015,400.10,0.16,261.6,31.2,138.04,31.71,24.65,36.42,0.04,-272.75,-272.74,-42,564,-932,25.0,4.1,-19.6,25.3,4.1,-19.3,5.73,2.30,-23.2,30.5
2012-11-01 00:52:00,0.0,1.9282,0.0021,400.16,0.21,259.9,35.8,138.04,31.71,24.65,36.42,0.04,-272.75,-272.75,-42,564,-933,24.9,4.1,-19.6,25.2,4.1,-19.4,5.73,2.40,-23.2,30.4
2012-11-01 00:53:00,0.0,1.9253,0.0019,400.10,0.22,255.9,32.6,138.04,31.71,24.65,36.41,0.04,-272.75,-272.75,-42,564,-932,24.9,4.1,-19.7,25.2,4.1,-19.4,5.73,2.38,-23.2,30.4
2012-11-01 00:54:00,0.0,1.9299,0.0011,400.20,0.20,257.8,30.0,138.04,31.71,24.65,36.42,0.04,-272.75,-272.75,-42,564,-932,24.9,4.1,-19.7,25.2,4.1,-19.5,5.73,2.31,-23.2,30.3
2012-11-01 00:55:00,0.0,1.9277,0.0019,400.11,0.20,257.7,30.3,138.04,31.71,24.66,36.42,0.04,-272.74,-272.75,-42,564,-932,24.9,4.1,-19.7,25.2,4.1,-19.5,5.73,2.32,-23.3,30.3
2012-11-01 00:56:00,0.0,1.9270,0.0019,400.14,0.17,250.6,30.6,138.04,31.70,24.66,36.42,0.04,-272.75,-272.75,-42,564,-932,24.9,4.1,-19.7,25.2,4.1,-19.5,5.73,2.40,-23.3,30.3
2012-11-01 00:57:00,0.0,1.9303,0.0011,400.20,0.18,255.5,24.2,138.04,31.70,24.65,36.42,0.04,-272.75,-272.75,-42,564,-932,24.9,4.1,-19.7,25.2,4.1,-19.5,5.73,2.40,-23.3,30.3
2012-11-01 00:58:00,0.0,1.9306,0.0009,400.15,0.23,245.9,28.5,138.04,31.70,24.65,36.42,0.04,-272.74,-272.75,-42,564,-932,24.9,4.1,-19.7,25.1,4.1,-19.5,5.73,2.32,-23.4,30.3
2012-11-01 00:59:00,0.0,1.9284,0.0015,400.03,0.23,246.9,30.8,138.04,31.70,24.65,36.43,0.04,-272.75,-272.75,-42,564,-932,24.8,4.1,-19.8,25.1,4.1,-19.5,5.73,2.32,-23.4,30.2
2012-11-01 01:00:00,0.0,1.9238,0.0013,400.01,0.20,243.6,30.8,138.04,31.69,24.66,36.42,0.04,-272.75,-272.75,-42,564,-932,24.8,4.1,-19.8,25.1,4.1,-19.5,5.73,2.39,-23.4,30.3
2012-11-01 01:01:00,0.0,1.9229,0.0022,400.05,0.24,243.6,28.6,138.04,31.69,24.65,36.42,0.04,-272.75,-272.74,-42,564,-933,24.7,4.1,-19.9,25.1,4.1,-19.5,5.73,2.41,-23.5,30.2
2012-11-01 01:02:00,0.0,1.9234,0.0012,400.15,0.18,235.7,28.8,138.04,31.69,24.65,36.42,0.04,-272.75,-272.75,-42,564,-933,24.7,4.1,-19.9,25.1,4.1,-19.6,5.73,2.31,-23.5,30.3
2012-11-01 01:03:00,0.0,1.9200,0.0010,400.04,0.19,235.3,31.6,138.04,31.69,24.66,36.42,0.04,-272.75,-272.75,-42,564,-932,24.7,4.1,-19.9,25.1,4.1,-19.6,5.73,2.34,-23.5,30.3
2012-11-01 01:04:00,0.0,1.9193,0.0014,400.09,0.22,224.3,31.7,138.04,31.69,24.65,36.42,0.04,-272.75,-272.75,-42,563,-932,24.7,4.0,-20.0,25.0,4.1,-19.6,5.73,2.42,-23.5,30.3
2012-11-01 01:05:00,0.0,1.9170,0.0011,400.07,0.22,239.0,31.2,138.04,31.69,24.66,36.42,0.04,-272.74,-272.74,-42,563,-932,24.7,4.0,-20.0,25.1,4.0,-19.7,5.73,2.34,-23.4,30.3
2012-11-01 01:06:00,0.0,1.9142,0.0011,399.84,0.24,239.0,29.7,138.04,31.69,24.66,36.42,0.04,-272.75,-272.75,-42,563,-932,24.8,4.0,-20.0,25.1,4.0,-19.7,5.73,2.31,-23.4,30.3
2012-11-01 01:07:00,0.0,1.9120,0.0010,399.72,0.18,249.7,30.0,138.04,31.69,24.66,36.43,0.04,-272.75,-272.75,-42,564,-932,24.8,4.0,-20.0,25.1,4.0,-19.8,5.73,2.42,-23.3,30.4
2012-11-01 01:08:00,0.0,1.9108,0.0012,399.66,0.24,254.4,35.7,138.04,31.69,24.66,36.43,0.04,-272.74,-272.75,-42,563,-932,24.9,4.0,-20.0,25.2,4.0,-19.7,5.73,2.34,-23.3,30.4
2012-11-01 01:09:00,0.0,1.9108,0.0008,399.71,0.21,251.8,34.0,138.04,31.69,24.65,36.42,0.04,-272.75,-272.75,-42,564,-932,24.9,4.0,-20.0,25.2,4.0,-19.7,5.73,2.31,-23.3,30.4
2012-11-01 01:10:00,0.0,1.9110,0.0013,399.61,0.25,263.5,33.9,138.04,31.69,24.65,36.42,0.04,-272.75,-272.75,-42,564,-931,24.9,4.0,-20.0,25.2,4.0,-19.7,5.73,2.42,-23.2,30.4
2012-11-01 01:11:00,0.0,1.9186,0.0013,400.08,0.17,262.2,31.4,138.04,31.70,24.66,36.41,0.04,-272.75,-272.75,-42,564,-932,25.0,4.0,-20.0,25.2,4.0,-19.8,5.73,2.33,-23.1,30.4
2012-11-01 01:12:00,0.0,1.9184,0.0011,400.01,0.20,263.1,33.4,138.04,31.70,24.66,36.42,0.04,-272.75,-272.75,-42,564,-931,25.0,3.9,-20.1,25.3,4.0,-19.8,5.73,2.31,-23.1,30.5
2012-11-01 01:13:00,0.0,1.9201,0.0020,400.20,0.23,265.6,31.8,138.04,31.71,24.65,36.42,0.04,-272.75,-272.75,-42,564,-932,25.0,3.9,-20.2,25.3,3.9,-19.9,5.73,2.42,-23.1,30.5
2012-11-01 01:14:00,0.0,1.9163,0.0014,399.95,0.21,270.3,32.9,138.03,31.71,24.66,36.42,0.04,-272.74,-272.75,-42,564,-932,25.0,3.9,-20.2,25.3,3.9,-19.9,5.73,2.33,-23.1,30.4
2012-11-01 01:15:00,0.0,1.9157,0.0009,400.00,0.20,262.7,36.8,138.04,31.71,24.65,36.42,0.04,-272.75,-272.75,-42,564,-932,25.0,3.9,-20.1,25.3,4.0,-19.8,5.73,2.31,-23.2,30.4
2012-11-01 01:16:00,0.0,1.9148,0.0010,399.92,0.20,262.5,33.3,138.04,31.71,24.66,36.42,0.04,-272.75,-272.75,-42,564,-932,25.0,3.9,-20.1,25.3,4.0,-19.8,5.73,2.39,-23.2,30.4
2012-11-01 01:17:00,0.0,1.9143,0.0010,399.82,0.19,259.9,33.9,138.04,31.71,24.65,36.42,0.04,-272.75,-272.74,-42,564,-931,25.0,3.9,-20.1,25.2,4.0,-19.8,5.73,2.40,-23.2,30.4
2012-11-01 01:18:00,0.0,1.9143,0.0010,399.83,0.22,253.7,32.2,138.04,31.70,24.65,36.42,0.04,-272.75,-272.75,-42,564,-932,24.9,4.0,-20.0,25.2,4.0,-19.8,5.73,2.32,-23.3,30.3
2012-11-01 01:19:00,0.0,1.9161,0.0020,400.09,0.19,244.0,32.0,138.04,31.70,24.65,36.41,0.04,-272.74,-272.75,-42,564,-932,24.9,3.9,-20.1,25.2,4.0,-19.8,5.73,2.32,-23.3,30.3
2012-11-01 01:20:00,0.0,1.9194,0.0010,400.25,0.26,242.5,34.0,138.04,31.70,24.66,36.42,0.04,-272.75,-272.75,-42,564,-932,24.9,4.0,-20.1,25.2,4.0,-19.8,5.73,2.39,-23.3,30.3
2012-11-01 01:21:00,0.0,1.9174,0.0015,400.15,0.25,247.0,33.9,138.04,31.70,24.66,36.42,0.04,-272.74,-272.75,-42,564,-932,24.9,4.0,-20.1,25.2,4.0,-19.9,5.73,2.40,-23.4,30.3
2012-11-01 01:22:00,0.0,1.9157,0.0011,400.13,0.22,235.4,34.0,138.04,31.70,24.66,36.42,0.04,-272.75,-272.75,-42,564,-932,24.8,4.0,-20.1,25.1,4.0,-19.9,5.73,2.32,-23.4,30.2
2012-11-01 01:23:00,0.0,1.9166,0.0012,400.14,0.20,234.8,31.0,138.04,31.70,24.65,36.42,0.04,-272.75,-272.75,-42,564,-932,24.8,3.9,-20.2,25.1,4.0,-19.9,5.73,2.32,-23.5,30.3
2012-11-01 01:24:00,0.0,1.9169,0.0009,400.12,0.24,243.1,31.8,138.04,31.70,24.65,36.43,0.04,-272.75,-272.75,-42,564,-932,24.8,3.9,-20.2,25.1,4.0,-19.9,5.73,2.41,-23.5,30.3
2012-11-01 01:25:00,0.0,1.9149,0.0012,400.07,0.21,244.0,31.0,138.04,31.69,24.66,36.43,0.04,-272.75,-272.74,-42,564,-932,24.7,4.0,-20.1,25.1,4.0,-19.9,5.73,2.37,-23.5,30.3
2012-11-01 01:26:00,0.0,1.9115,0.0014,399.95,0.17,252.6,37.4,138.04,31.69,24.66,36.42,0.04,-272.75,-272.74,-42,563,-931,24.8,4.0,-20.1,25.1,4.0,-19.9,5.73,2.29,-23.5,30.3
2012-11-01 01:27:00,0.0,1.9105,0.0009,399.91,0.24,240.5,27.2,138.04,31.70,24.66,36.42,0.04,-272.75,-272.75,-42,563,-932,24.8,4.0,-20.1,25.1,4.0,-19.8,5.73,2.39,-23.4,30.4
2012-11-01 01:28:00,0.0,1.9111,0.0011,399.94,0.22,248.6,30.1,138.04,31.70,24.65,36.42,0.04,-272.74,-272.74,-42,563,-932,24.8,4.0,-20.1,25.1,4.0,-19.7,5.73,2.39,-23.4,30.4
2012-11-01 01:29:00,0.0,1.9120,0.0012,400.07,0.24,252.0,33.1,138.04,31.70,24.65,36.42,0.04,-272.74,-272.74,-42,564,-932,24.9,4.0,-20.0,25.1,4.0,-19.8,5.73,2.29,-23.3,30.4
2012-11-01 01:30:00,0.0,1.9129,0.0009,400.05,0.17,251.1,30.3,138.04,31.70,24.66,36.43,0.04,-272.75,-272.75,-42,564,-932,24.9,4.0,-20.0,25.2,4.0,-19.7,5.73,2.39,-23.3,30.4
2012-11-01 01:31:00,0.0,1.9139,0.0012,400.12,0.19,246.5,31.9,138.04,31.70,24.66,36.42,0.04,-272.75,-272.75,-42,564,-932,24.9,4.0,-20.0,25.1,4.0,-19.7,5.73,2.39,-23.3,30.4
2012-11-01 01:32:00,0.0,1.9143,0.0009,400.11,0.20,250.9,35.0,138.04,31.70,24.65,36.42,0.04,-272.74,-272.75,-42,564,-932,24.9,4.0,-20.0,25.1,4.0,-19.7,5.73,2.30,-23.4,30.3
2012-11-01 01:33:00,0.0,1.9143,0.0011,400.19,0.21,244.8,31.3,138.04,31.70,24.66,36.41,0.04,-272.75,-272.75,-42,564,-932,24.8,4.0,-20.0,25.1,4.0,-19.7,5.73,2.35,-23.4,30.3
2012-11-01 01:34:00,0.0,1.9127,0.0013,400.05,0.20,240.3,37.4,138.04,31.70,24.65,36.42,0.04,-272.75,-272.75,-42,564,-932,24.8,4.0,-20.0,25.1,4.0,-19.8,5.73,2.41,-23.4,30.3
2012-11-01 01:35:00,0.0,1.9109,0.0013,399.87,0.18,245.2,24.9,138.04,31.70,24.66,36.42,0.04,-272.75,-272.75,-42,563,-932,24.8,4.0,-20.0,25.1,4.0,-19.8,5.73,2.34,-23.4,30.3
2012-11-01 01:36:00,0.0,1.9126,0.0009,399.98,0.20,237.9,34.0,138.04,31.70,24.65,36.43,0.04,-272.75,-272.75,-42,564,-932,24.8,4.0,-20.0,25.1,4.0,-19.7,5.73,2.30,-23.5,30.2
2012-11-01 01:37:00,0.0,1.9119,0.0009,400.12,0.19,230.3,28.2,138.04,31.69,24.65,36.41,0.04,-272.75,-272.75,-42,563,-931,24.7,4.0,-20.0,25.1,4.0,-19.7,5.73,2.37,-23.5,30.2
2012-11-01 01:38:00,0.0,1.9111,0.0011,399.95,0.17,228.1,32.4,138.04,31.69,24.65,36.42,0.04,-272.75,-272.75,-42,563,-931,24.7,4.0,-20.0,25.0,4.0,-19.7,5.73,2.41,-23.5,30.2
2012-11-01 01:39:00,0.0,1.9112,0.0012,399.95,0.21,236.8,35.2,138.04,31.69,24.65,36.42,0.04,-272.75,-272.75,-42,563,-931,24.7,4.0,-20.0,25.0,4.1,-19.7,5.73,2.31,-23.6,30.2
2012-11-01 01:40:00,0.0,1.9104,0.0009,399.86,0.22,227.8,33.1,138.04,31.69,24.65,36.42,0.04,-272.75,-272.75,-42,563,-932,24.7,4.0,-20.0,25.0,4.1,-19.6,5.73,2.33,-23.6,30.3
2012-11-01 01:41:00,0.0,1.9098,0.0009,399.76,0.21,234.9,34.3,138.04,31.69,24.66,36.42,0.04,-272.75,-272.75,-42,563,-932,24.7,4.0,-20.0,25.1,4.1,-19.7,5.73,2.42,-23.5,30.3
2012-11-01 01:42:00,0.0,1.9101,0.0010,399.85,0.22,237.4,37.0,138.04,31.69,24.65,36.41,0.04,-272.75,-272.75,-42,563,-931,24.7,4.0,-19.9,25.1,4.0,-19.7,5.73,2.32,-23.5,30.3
2012-11-01 01:43:00,0.0,1.9096,0.0009,399.65,0.19,245.9,33.1,138.04,31.69,24.66,36.42,0.04,-272.75,-272.75,-42,563,-932,24.8,4.0,-20.0,25.1,4.0,-19.7,5.73,2.32,-23.4,30.4
2012-11-01 01:44:00,0.0,1.9090,0.0008,399.54,0.23,241.9,29.8,138.04,31.70,24.66,36.42,0.04,-272.75,-272.75,-42,563,-931,24.8,4.0,-20.0,25.1,4.0,-19.7,5.73,2.42,-23.4,30.3
2012-11-01 01:45:00,0.0,1.9090,0.0010,399.58,0.22,256.7,32.1,138.04,31.70,24.65,36.42,0.04,-272.75,-272.75,-42,563,-932,24.8,4.0,-20.0,25.2,4.0,-19.7,5.73,2.31,-23.3,30.4
2012-11-01 01:46:00,0.0,1.9084,0.0010,399.48,0.21,241.5,31.6,138.04,31.71,24.66,36.43,0.04,-272.74,-272.75,-42,563,-931,24.9,4.0,-19.9,25.2,4.0,-19.6,5.73,2.34,-23.3,30.4
2012-11-01 01:47:00,0.0,1.9087,0.0013,399.48,0.22,245.4,32.1,138.04,31.71,24.66,36.42,0.04,-272.74,-272.75,-42,563,-932,24.9,4.0,-19.9,25.2,4.1,-19.5,5.73,2.42,-23.2,30.4
2012-11-01 01:48:00,0.0,1.9098,0.0009,399.64,0.23,258.2,38.3,138.03,31.71,24.65,36.42,0.04,-272.74,-272.75,-42,564,-931,25.0,4.0,-19.9,25.2,4.1,-19.5,5.73,2.29,-23.2,30.5
2012-11-01 01:49:00,0.0,1.9093,0.0011,399.52,0.22,262.9,31.6,138.03,31.72,24.66,36.42,0.04,-272.75,-272.75,-42,564,-932,25.0,4.0,-19.8,25.3,4.1,-19.5,5.73,2.36,-23.2,30.5
2012-11-01 01:50:00,0.0,1.9088,0.0010,399.42,0.20,256.6,31.2,138.03,31.72,24.66,36.42,0.04,-272.75,-272.75,-42,564,-931,25.0,4.0,-19.7,25.3,4.1,-19.4,5.73,2.41,-23.2,30.5
2012-11-01 01:51:00,0.0,1.9086,0.0011,399.30,0.18,260.7,34.8,138.03,31.72,24.65,36.43,0.04,-272.75,-272.75,-42,564,-931,25.0,4.1,-19.7,25.2,4.1,-19.4,5.73,2.31,-23.2,30.5
2012-11-01 01:52:00,0.0,1.9082,0.0008,399.34,0.17,251.9,34.1,138.03,31.72,24.65,36.42,0.04,-272.74,-272.74,-42,564,-931,25.0,4.1,-19.6,25.2,4.1,-19.3,5.73,2.32,-23.3,30.4
2012-11-01 01:53:00,0.0,1.9090,0.0009,399.49,0.17,244.8,36.0,138.04,31.72,24.65,36.42,0.04,-272.75,-272.75,-42,564,-931,25.0,4.1,-19.5,25.2,4.2,-19.3,5.73,2.40,-23.3,30.4
2012-11-01 01:54:00,0.0,1.9085,0.0009,399.48,0.20,250.0,37.4,138.04,31.72,24.65,36.42,0.04,-272.75,-272.75,-42,564,-931,24.9,4.1,-19.5,25.2,4.2,-19.2,5.73,2.38,-23.4,30.3
2012-11-01 01:55:00,0.0,1.9079,0.0008,399.48,0.20,243.2,30.0,138.04,31.72,24.66,36.42,0.04,-272.75,-272.75,-42,564,-931,24.9,4.2,-19.5,25.2,4.2,-19.2,5.73,2.30,-23.4,30.3
2012-11-01 01:56:00,0.0,1.9083,0.0009,399.43,0.21,244.6,25.6,138.04,31.72,24.65,36.42,0.04,-272.75,-272.75,-42,564,-931,24.9,4.2,-19.5,25.1,4.2,-19.2,5.73,2.33,-23.5,30.3
2012-11-01 01:57:00,0.0,1.9078,0.0010,399.40,0.18,248.3,36.0,138.04,31.71,24.65,36.42,0.04,-272.75,-272.75,-42,564,-931,24.8,4.2,-19.4,25.1,4.2,-19.1,5.73,2.41,-23.5,30.3
2012-11-01 01:58:00,0.0,1.9077,0.0009,399.40,0.17,232.3,32.3,138.04,31.71,24.65,36.42,0.04,-272.75,-272.74,-42,564,-931,24.8,4.2,-19.3,25.1,4.3,-19.1,5.73,2.38,-23.5,30.3
2012-11-01 01:59:00,0.0,1.9071,0.0010,399.38,0.18,225.3,31.8,138.04,31.70,24.66,36.42,0.04,-272.74,-272.74,-42,564,-931,24.8,4.3,-19.3,25.1,4.3,-19.1,5.73,2.30,-23.6,30.2
2012-11-01 02:00:00,0.0,1.9070,0.0009,399.46,0.17,231.7,38.5,138.04,31.70,24.66,36.42,0.04,-272.75,-272.75,-42,563,-931,24.7,4.3,-19.3,25.1,4.3,-19.0,5.73,2.35,-23.6,30.3
2012-11-01 02:01:00,0.0,1.9076,0.0011,399.49,0.19,234.7,30.3,138.04,31.70,24.65,36.42,0.04,-272.75,-272.75,-42,563,-931,24.7,4.2,-19.4,25.1,4.3,-19.1,5.73,2.42,-23.6,30.3
2012-11-01 02:02:00,0.0,1.9070,0.0010,399.49,0.26,227.9,34.2,138.04,31.70,24.66,36.42,0.04,-272.74,-272.75,-42,563,-931,24.7,4.2,-19.5,25.1,4.2,-19.3,5.73,2.32,-23.6,30.3
2012-11-01 02:03:00,0.0,1.9068,0.0011,399.57,0.18,226.9,24.3,138.04,31.70,24.65,36.42,0.04,-272.75,-272.75,-42,563,-931,24.8,4.1,-19.6,25.1,4.2,-19.4,5.73,2.33,-23.5,30.3
2012-11-01 02:04:00,0.0,1.9067,0.0010,399.62,0.18,234.2,29.1,138.04,31.70,24.66,36.42,0.04,-272.75,-272.75,-42,563,-931,24.8,4.1,-19.7,25.1,4.1,-19.4,5.73,2.42,-23.5,30.4
2012-11-01 02:05:00,0.0,1.9081,0.0013,399.70,0.21,232.6,33.3,138.04,31.70,24.66,36.42,0.04,-272.75,-272.75,-42,563,-931,24.8,4.1,-19.8,25.1,4.1,-19.5,5.73,2.31,-23.4,30.4
2012-11-01 02:06:00,0.0,1.9076,0.0011,399.57,0.24,242.4,29.4,138.04,31.70,24.66,36.42,0.04,-272.75,-272.74,-42,563,-931,24.9,4.1,-19.8,25.1,4.1,-19.5,5.73,2.34,-23.4,30.4
2012-11-01 02:07:00,0.0,1.9072,0.0011,399.51,0.19,246.5,29.8,138.04,31.70,24.65,36.42,0.04,-272.75,-272.75,-42,563,-931,24.9,4.0,-19.8,25.2,4.1,-19.5,5.73,2.41,-23.4,30.4
2012-11-01 02:08:00,0.0,1.9057,0.0012,399.47,0.22,246.2,36.4,138.03,31.70,24.66,36.42,0.04,-272.75,-272.75,-42,564,-931,24.9,4.0,-19.8,25.2,4.1,-19.5,5.73,2.29,-23.3,30.5
2012-11-01 02:09:00,0.0,1.9043,0.0009,399.46,0.19,248.7,35.5,138.03,31.71,24.66,36.42,0.04,-272.75,-272.74,-42,564,-931,25.0,4.0,-19.9,25.2,4.0,-19.6,5.73,2.36,-23.3,30.5
2012-11-01 02:10:00,0.0,1.9042,0.0010,399.40,0.21,257.3,33.2,138.03,31.71,24.65,36.42,0.04,-272.75,-272.74,-42,564,-931,25.0,4.0,-19.9,25.3,4.0,-19.6,5.73,2.39,-23.2,30.5
2012-11-01 02:11:00,0.0,1.9038,0.0012,399.38,0.24,257.8,31.3,138.03,31.72,24.66,36.42,0.04,-272.74,-272.75,-42,564,-931,25.1,4.0,-19.8,25.3,4.0,-19.6,5.73,2.28,-23.2,30.6
2012-11-01 02:12:00,0.0,1.9037,0.0008,399.23,0.22,260.5,35.3,138.03,31.72,24.66,36.43,0.04,-272.74,-272.74,-42,564,-931,25.1,4.0,-19.7,25.3,4.1,-19.4,5.73,2.38,-23.2,30.6
2012-11-01 02:13:00,0.0,1.9035,0.0010,399.23,0.21,252.2,35.3,138.03,31.73,24.65,36.43,0.04,-272.74,-272.74,-42,564,-932,25.1,4.1,-19.7,25.3,4.1,-19.4,5.73,2.39,-23.2,30.5
2012-11-01 02:14:00,0.0,1.9035,0.0010,399.21,0.20,248.1,31.8,138.04,31.73,24.65,36.43,0.04,-272.75,-272.75,-42,564,-932,25.1,4.1,-19.6,25.3,4.1,-19.3,5.73,2.29,-23.3,30.5
2012-11-01 02:15:00,0.0,1.9036,0.0012,399.28,0.17,243.5,31.0,138.04,31.73,24.65,36.42,0.04,-272.75,-272.75,-42,564,-931,25.0,4.1,-19.5,25.3,4.2,-19.2,5.73,2.33,-23.3,30.4
2012-11-01 02:16:00,0.0,1.9034,0.0010,399.36,0.18,239.7,31.7,138.04,31.73,24.65,36.42,0.04,-272.75,-272.75,-42,564,-932,25.0,4.1,-19.5,25.3,4.2,-19.2,5.73,2.40,-23.4,30.4